Regional Weather Roundup
Issued by NWS Jackson, KY

Home | Current Version | Previous Version | Text Only | Print | Product List | Glossary Off
Versions: 1 2 3 4 5 6 7 8 9 10 11 12 13 14 15 16 17 18 19 20 21 22 23 24 25 26 27 28 29 30 31 32 33 34 35 36 37 38 39 40 41 42 43 44 45 46 47 48 49 50

000
ASUS43 KJKL 231910
RWRJKL

EAST KENTUCKY HOURLY WEATHER ROUNDUP
NATIONAL WEATHER SERVICE JACKSON KY
300 PM EDT TUE MAY 23 2017

NOTE: "FAIR" INDICATES FEW OR NO CLOUDS BELOW 12,000 FEET WITH
NO SIGNIFICANT WEATHER AND/OR OBSTRUCTIONS TO VISIBILITY.

* THESE REPORTS ARE NOT UNDER NWS QUALITY CONTROL AND MAY NOT
  REPORT WEATHER SUCH AS PRECIPITATION AND FOG.

KYZ079-080-083-085-087-088-110-112-115-119-120-232000
...EASTERN KENTUCKY...

CITY           SKY/WX    TMP DP  RH WIND       PRES   REMARKS
JACKSON        LGT RAIN  64  61  90 CALM      29.75F
LONDON         CLOUDY    68  60  75 NW3       29.73F
SOMERSET*      CLOUDY    68  55  64 CALM      29.73F
MONTICELLO*    CLOUDY    71  60  68 E8        29.74F
WILLIAMSBURG*  CLOUDY    66  61  82 CALM      29.73F
MIDDLESBORO*   LGT RAIN  66  64  92 CALM      29.73F
HARLAN APT*    CLOUDY    64  61  88 CALM      29.75F
PIKE CO APT*   LGT RAIN  62  62 100 N5        29.76F
BIG SANDY APT* LGT RAIN  64  62  93 CALM      29.76F
MOREHEAD APT*  CLOUDY    70  57  64 VRB5      29.76F
$$

KYZ035-036-041-042-044-050-067-078-099-232000
...CENTRAL KENTUCKY...

CITY           SKY/WX    TMP DP  RH WIND       PRES   REMARKS
MT STERLING*   RAIN      68  59  73 S3        29.75F
FLEMING/MASON* CLOUDY    70  54  57 E3        29.75F
DANVILLE*      CLOUDY    72  61  68 E5        29.73F
LEXINGTON      CLOUDY    74  57  55 VRB5      29.72F
FRANKFORT      CLOUDY    75  58  55 VRB6      29.71F
LOUISVILLE     CLOUDY    75  54  47 SE6       29.70F
LEBANON*       MOCLDY    72  59  64 CALM      29.71F
GLASGOW*       MOSUNNY   74  58  56 CALM      29.69F
BOWLING GREEN  CLOUDY    76  57  51 CALM      29.70F
$$

KYZ091>093-OHZ055-061-077-WVZ005-015-034-035-042-232000
...SOUTHERN OHIO/WEST VIRGINIA...

CITY           SKY/WX    TMP DP  RH WIND       PRES   REMARKS
COVINGTON      PTSUNNY   74  49  41 E9        29.72F
COLUMBUS       CLOUDY    75  46  35 SE10      29.75F
DAYTON         PTSUNNY   72  48  42 SE5       29.75F
WILMINGTON     PTSUNNY   72  51  47 CALM      29.74F
HUNTINGTON     CLOUDY    72  58  61 CALM      29.74F
CHARLESTON     CLOUDY    68  57  68 SE5       29.76F
PINEVILLE*     DRIZZLE   64  59  85 MISG      29.84F
BECKLEY        LGT RAIN  59  55  87 SE8       29.82S
BLUEFIELD      LGT RAIN  56  54  93 E8        29.83F
LOGAN CO APT*  LGT RAIN  64  61  88 CALM      29.77F
$$

VAZ002-007-008-TNZ017-027-036-066-071-232000
...SOUTHWEST VIRGINIA/EAST TENNESSEE...

CITY           SKY/WX    TMP DP  RH WIND       PRES   REMARKS
WISE*          CLOUDY    63  63 100 SE3       29.79F
JONESVILLE*    LGT RAIN  64  63  94 CALM      29.76F
ABINGDON*      LGT RAIN  64  63  96 E9        29.77F
BRISTOL        LGT RAIN  64  63  96 N3        29.75F FOG
MORRISTOWN*    CLOUDY    66  63  88 CALM      29.73F
SEVIERVILLE*   CLOUDY    64  61  88 CALM      29.72F
KNOXVILLE      LGT RAIN  67  63  87 NE6       29.71F FOG
LAFOLLETTE*    CLOUDY    64  63  94 CALM      29.75F FOG
OAK RIDGE      LGT RAIN  66  63  90 CALM      29.73F FOG
CROSSVILLE     RAIN      63  61  93 CALM      29.75F FOG
NASHVILLE      PTSUNNY   78  59  51 E6        29.69F
$$

...KEY TO REMARKS...
VSB - VISIBILITY IN MILES
WCI - WIND CHILL INDEX
HX  - HEAT INDEX

$$



USA.gov is the U.S. government's official web portal to all federal, state and local government web resources and services.